User: anonymous   Login
Location: Houston
(29.7630°N, 95.3630°W)
Time: 19:51:04
(UTC-05:00)
Language:

Saudisat 1A - Orbit

View from above orbital plane
View from above orbital plane
View from above satellite
View from above satellite

Ground track
Ground track

The orbit data is extracted from the following two-line orbital elements,

1 26546U 00057B   16177.85721006  .00000120  00000-0  28587-4 0  9993
2 26546  64.5548  10.3869 0048368 268.0635  91.4935 14.90251305853550
Epoch (UTC): 25 June 2016 20:34:22
Eccentricity: 0.0048368
inclination: 64.5548°
perigee height: 563 km
apogee height: 631 km
right ascension of ascending node: 10.3869°
argument of perigee: 268.0635°
revolutions per day: 14.90251305
mean anomaly at epoch: 91.4935°
orbit number at epoch: 85355

The dashed part of the orbit path shows where the satellite is in the earth's shadow,  

DLR